| time (UTC) | temp F | wind direction | speed MPH | gust MPH | rain 1hr in | rain 24hr in | rain mn in | humidity % | barometer mb |
| 20260504173057 | 54 | 207 | 11.0 | 18.0 | 0.00 | 0.13 | 0.13 | 63 | 1001.0 |
| 20260504171556 | 54 | 194 | 8.0 | 15.0 | 0.00 | 0.13 | 0.13 | 61 | 1001.1 |
| 20260504100104 | 49 | 208 | 5.0 | 8.0 | 0.00 | 0.13 | 0.13 | 90 | 1001.7 |
| 20260504090104 | 46 | 170 | 3.0 | 8.0 | 0.00 | 0.13 | 0.13 | 92 | 1002.1 |
| 20260504081541 | 44 | 236 | 1.0 | 4.0 | 0.01 | 0.13 | 0.13 | 92 | 1002.3 |
| 20260504050013 | 40 | 137 | 2.0 | 8.0 | 0.06 | 0.06 | 0.06 | 89 | 1003.8 |
| 20260504044518 | 41 | 170 | 1.0 | 6.0 | 0.04 | 0.04 | 0.04 | 88 | 1003.9 |
| 20260504043007 | 41 | 129 | 1.0 | 4.0 | 0.02 | 0.02 | 0.02 | 86 | 1003.8 |
| 20260504041506 | 42 | 120 | 1.0 | 4.0 | 0.02 | 0.02 | 0.02 | 83 | 1003.8 |
| 20260504040001 | 42 | 83 | 0.0 | 4.0 | 0.01 | 0.02 | 0.01 | 81 | 1003.8 |
| 20260504034615 | 42 | 115 | 2.0 | 4.0 | 0.00 | 0.02 | 0.00 | 81 | 1004.0 |
| 20260504033057 | 42 | 115 | 0.0 | 3.0 | 0.00 | 0.02 | 0.00 | 81 | 1004.2 |
| 20260504031556 | 42 | 115 | 0.0 | 2.0 | 0.00 | 0.02 | 0.00 | 81 | 1004.3 |
| 20260504030053 | 42 | 115 | 0.0 | 3.0 | 0.00 | 0.02 | 0.00 | 79 | 1004.5 |
| 20260504024552 | 42 | 115 | 1.0 | 4.0 | 0.00 | 0.04 | 0.00 | 79 | 1004.8 |
| 20260504023049 | 42 | 115 | 0.0 | 3.0 | 0.00 | 0.04 | 0.00 | 80 | 1005.1 |
| 20260504021550 | 42 | 117 | 0.0 | 3.0 | 0.00 | 0.04 | 0.00 | 80 | 1005.1 |
| 20260504020047 | 42 | 158 | 4.0 | 7.0 | 0.00 | 0.04 | 0.00 | 80 | 1005.4 |
| 20260504014545 | 42 | 154 | 2.0 | 5.0 | 0.00 | 0.05 | 0.00 | 81 | 1005.2 |
| 20260504013051 | 42 | 107 | 1.0 | 6.0 | 0.00 | 0.05 | 0.00 | 81 | 1005.3 |
| 20260504011539 | 42 | 165 | 2.0 | 7.0 | 0.00 | 0.05 | 0.00 | 82 | 1005.6 |
| 20260504010041 | 42 | 151 | 3.0 | 6.0 | 0.00 | 0.05 | 0.00 | 82 | 1005.7 |
| 20260504004533 | 43 | 151 | 1.0 | 5.0 | 0.00 | 0.05 | 0.00 | 81 | 1005.9 |
| 20260504003035 | 43 | 151 | 1.0 | 5.0 | 0.00 | 0.05 | 0.00 | 83 | 1006.0 |
| 20260504001537 | 43 | 117 | 2.0 | 4.0 | 0.00 | 0.05 | 0.00 | 84 | 1006.1 |
| 20260504000027 | 43 | 130 | 2.0 | 5.0 | 0.00 | 0.05 | 0.00 | 84 | 1006.4 |
| 20260503234524 | 43 | 142 | 1.0 | 4.0 | 0.00 | 0.05 | 0.00 | 84 | 1006.4 |
| 20260503233022 | 42 | 134 | 2.0 | 3.0 | 0.00 | 0.05 | 0.00 | 84 | 1006.5 |
| 20260503231523 | 42 | 93 | 2.0 | 6.0 | 0.00 | 0.05 | 0.00 | 84 | 1006.7 |
| 20260503230022 | 42 | 61 | 0.0 | 3.0 | 0.00 | 0.05 | 0.00 | 84 | 1006.8 |
| 20260503224517 | 42 | 61 | 0.0 | 2.0 | 0.00 | 0.05 | 0.00 | 84 | 1006.9 |
| 20260503223014 | 42 | 61 | 0.0 | 2.0 | 0.00 | 0.05 | 0.00 | 83 | 1006.9 |
| 20260503221512 | 42 | 61 | 0.0 | 4.0 | 0.00 | 0.05 | 0.00 | 83 | 1007.0 |
| 20260503220009 | 42 | 61 | 0.0 | 3.0 | 0.00 | 0.05 | 0.00 | 83 | 1007.1 |
| 20260503214511 | 42 | 61 | 2.0 | 6.0 | 0.00 | 0.05 | 0.05 | 84 | 1007.2 |
| 20260503213008 | 42 | 61 | 0.0 | 3.0 | 0.00 | 0.05 | 0.05 | 84 | 1007.5 |
| 20260503211507 | 42 | 61 | 0.0 | 0.0 | 0.00 | 0.05 | 0.05 | 86 | 1007.7 |
| 20260503210006 | 42 | 61 | 0.0 | 2.0 | 0.00 | 0.05 | 0.05 | 85 | 1007.7 |
| 20260503204512 | 42 | 61 | 0.0 | 3.0 | 0.00 | 0.05 | 0.05 | 85 | 1007.7 |
| 20260503203005 | 43 | 61 | 2.0 | 4.0 | 0.00 | 0.05 | 0.05 | 85 | 1007.6 |
| 20260503201506 | 43 | 61 | 0.0 | 3.0 | 0.00 | 0.05 | 0.05 | 85 | 1007.8 |
| 20260503200005 | 43 | 61 | 3.0 | 5.0 | 0.00 | 0.05 | 0.05 | 85 | 1007.7 |
| 20260503194502 | 43 | 61 | 2.0 | 4.0 | 0.00 | 0.05 | 0.05 | 85 | 1007.9 |
| 20260503193101 | 43 | 61 | 2.0 | 4.0 | 0.00 | 0.05 | 0.05 | 85 | 1008.0 |
| 20260503191559 | 43 | 61 | 1.0 | 3.0 | 0.00 | 0.05 | 0.05 | 85 | 1008.0 |
| 20260503190057 | 43 | 61 | 2.0 | 5.0 | 0.00 | 0.05 | 0.05 | 86 | 1008.0 |
| 20260503184605 | 43 | 51 | 3.0 | 5.0 | 0.00 | 0.05 | 0.05 | 86 | 1007.9 |
| 20260503183057 | 43 | 51 | 2.0 | 5.0 | 0.00 | 0.05 | 0.05 | 86 | 1008.0 |
| 20260503181601 | 43 | 51 | 0.0 | 5.0 | 0.00 | 0.05 | 0.05 | 86 | 1008.0 |
| 20260503180106 | 43 | 39 | 3.0 | 4.0 | 0.00 | 0.05 | 0.05 | 86 | 1008.0 |
| 20260503174554 | 43 | 39 | 1.0 | 4.0 | 0.00 | 0.05 | 0.05 | 86 | 1008.0 |